This is the latest recevied weather packets stored in our database for station/object KI8L. If no packets are shown the sender has not sent any weather packets the latest 10 day(s).
| Time | Temp. | Humidity | Pressure | Rain* | Wind** | Luminosity | Snow |
|---|---|---|---|---|---|---|---|
| 1777854535 | 11.67° C | 54% | 1014.6 hPa | 0 mm | - | 2 W/m² | - |
| 1777854231 | 12.22° C | 52% | 1014.7 hPa | 0 mm | - | 4 W/m² | - |
| 1777853929 | 12.22° C | 50% | 1014.7 hPa | 0 mm | - | 6 W/m² | - |
| 1777853626 | 12.22° C | 51% | 1014.4 hPa | 0 mm | - | 8 W/m² | - |
| 1777853323 | 12.78° C | 53% | 1014.7 hPa | 0 mm | - | 11 W/m² | - |
| 1777853020 | 12.22° C | 51% | 1014.5 hPa | 0 mm | - | 13 W/m² | - |
| 1777852718 | 12.78° C | 51% | 1014.7 hPa | 0 mm | - | 15 W/m² | - |
| 1777852415 | 13.33° C | 50% | 1014.5 hPa | 0 mm | - | 19 W/m² | - |
| 1777852112 | 13.33° C | 49% | 1014.7 hPa | 0 mm | - | 31 W/m² | - |
| 1777851810 | 13.33° C | 46% | 1014.7 hPa | 0 mm | - | 42 W/m² | - |
| 1777851508 | 13.89° C | 47% | 1014.8 hPa | 0 mm | - | 47 W/m² | - |
| 1777851203 | 13.89° C | 48% | 1014.9 hPa | 0 mm | - | 50 W/m² | - |
| 1777850900 | 13.89° C | 49% | 1014.9 hPa | 0 mm | - | 51 W/m² | - |
| 1777850598 | 13.33° C | 48% | 1015 hPa | 0 mm | - | 44 W/m² | - |
| 1777850295 | 13.89° C | 48% | 1014.9 hPa | 0 mm | - | 56 W/m² | - |
| 1777849992 | 13.89° C | 47% | 1014.9 hPa | 0 mm | - | 63 W/m² | - |
| 1777849688 | 13.89° C | 46% | 1015.1 hPa | 0 mm | - | 65 W/m² | - |
| 1777849385 | 13.89° C | 48% | 1014.9 hPa | 0 mm | - | 70 W/m² | - |
| 1777849083 | 13.89° C | 47% | 1014.9 hPa | 0 mm | - | 93 W/m² | - |
| 1777848778 | 13.89° C | 47% | 1015 hPa | 0 mm | - | 100 W/m² | - |
| 1777848475 | 13.89° C | 44% | 1015 hPa | 0 mm | - | 82 W/m² | - |
| 1777848172 | 13.89° C | 48% | 1015 hPa | 0 mm | - | 88 W/m² | - |
| 1777847870 | 14.44° C | 47% | 1015.2 hPa | 0 mm | - | 109 W/m² | - |
| 1777847568 | 14.44° C | 43% | 1015.1 hPa | 0 mm | - | 114 W/m² | - |
| 1777847263 | 14.44° C | 46% | 1015.3 hPa | 0 mm | - | 195 W/m² | - |
* Rain latest hour (hover to see other rain measurements)
** Current wind speed in m/s (hover to see current wind gust speed)